This is the latest recevied weather packets stored in our database for station/object KJ5SC. If no packets are shown the sender has not sent any weather packets the latest 10 day(s).
| Time | Temp. | Humidity | Pressure | Rain* | Wind** | Luminosity | Snow |
|---|---|---|---|---|---|---|---|
| 1787846372 | 35° C | 54% | 1017.8 hPa | 0 mm | - | 588 W/m² | - |
| 1787846068 | 35° C | 53% | 1017.7 hPa | 0 mm | - | 564 W/m² | - |
| 1787845763 | 35° C | 54% | 1017.8 hPa | 0 mm | - | 589 W/m² | - |
| 1787845459 | 34.44° C | 57% | 1017.8 hPa | 0 mm | - | 592 W/m² | - |
| 1787845155 | 33.89° C | 57% | 1018 hPa | 0 mm | - | 565 W/m² | - |
| 1787844850 | 33.89° C | 58% | 1017.8 hPa | 0 mm | - | 411 W/m² | - |
| 1787844548 | 33.89° C | 57% | 1017.7 hPa | 0 mm | - | 498 W/m² | - |
| 1787844244 | 33.89° C | 58% | 1017.8 hPa | 0 mm | - | 485 W/m² | - |
| 1787843943 | 33.33° C | 60% | 1017.6 hPa | 0 mm | - | 468 W/m² | - |
| 1787843638 | 32.78° C | 61% | 1017.7 hPa | 0 mm | - | 458 W/m² | - |
| 1787843335 | 32.78° C | 61% | 1017.8 hPa | 0 mm | - | 448 W/m² | - |
| 1787843030 | 32.78° C | 62% | 1017.7 hPa | 0 mm | - | 426 W/m² | - |
| 1787842730 | 32.22° C | 65% | 1017.7 hPa | 0 mm | - | 408 W/m² | - |
| 1787842425 | 32.22° C | 65% | 1017.6 hPa | 0 mm | - | 391 W/m² | - |
| 1787842125 | 31.67° C | 65% | 1017.6 hPa | 0 mm | - | 371 W/m² | - |
| 1787841820 | 31.11° C | 67% | 1017.8 hPa | 0 mm | - | 356 W/m² | - |
| 1787841516 | 31.11° C | 68% | 1017.7 hPa | 0 mm | - | 337 W/m² | - |
| 1787841214 | 30.56° C | 69% | 1017.8 hPa | 0 mm | - | 324 W/m² | - |
| 1787840909 | 30.56° C | 70% | 1017.5 hPa | 0 mm | - | 309 W/m² | - |
| 1787840605 | 30° C | 71% | 1017.5 hPa | 0 mm | - | 290 W/m² | - |
| 1787840300 | 30° C | 72% | 1017.6 hPa | 0 mm | - | 277 W/m² | - |
| 1787840000 | 30° C | 73% | 1017.5 hPa | 0 mm | - | 254 W/m² | - |
| 1787839700 | 29.44° C | 73% | 1017.6 hPa | 0 mm | - | 220 W/m² | - |
| 1787839395 | 29.44° C | 75% | 1017.6 hPa | 0 mm | - | 225 W/m² | - |
| 1787839095 | 28.89° C | 76% | 1017.5 hPa | 0 mm | - | 210 W/m² | - |
* Rain latest hour (hover to see other rain measurements)
** Current wind speed in m/s (hover to see current wind gust speed)